This is the latest recevied weather packets stored in our database for station/object W8RSN-13. If no packets are shown the sender has not sent any weather packets the latest 10 day(s).
| Time | Temp. | Humidity | Pressure | Rain* | Wind** | Luminosity | Snow |
|---|---|---|---|---|---|---|---|
| 1787881165 | 32.22° C | 47% | 1011.6 hPa | - | - | - | - |
| 1787880864 | 32.22° C | 46% | 1011.8 hPa | - | - | - | - |
| 1787880563 | 32.78° C | 45% | 1011.7 hPa | - | - | - | - |
| 1787880262 | 33.33° C | 44% | 1011.5 hPa | - | - | - | - |
| 1787879961 | 33.33° C | 43% | 1011.7 hPa | - | - | - | - |
| 1787879660 | 34.44° C | 40% | 1011.6 hPa | - | - | - | - |
| 1787879359 | 35° C | 36% | 1011.3 hPa | - | - | - | - |
| 1787879058 | 35.56° C | 33% | 1011.5 hPa | - | - | - | - |
| 1787878757 | 35.56° C | 31% | 1011.4 hPa | - | - | - | - |
| 1787878457 | 36.11° C | 30% | 1011.4 hPa | - | - | - | - |
| 1787878156 | 36.11° C | 29% | 1011.3 hPa | - | - | - | - |
| 1787877875 | 36.67° C | 28% | 1011.4 hPa | - | - | - | - |
| 1787877574 | 37.22° C | 29% | 1011.3 hPa | - | - | - | - |
| 1787877273 | 37.22° C | 28% | 1011.3 hPa | - | - | - | - |
| 1787876972 | 37.22° C | 28% | 1011.5 hPa | - | - | - | - |
| 1787876671 | 37.22° C | 27% | 1011.4 hPa | - | - | - | - |
| 1787876370 | 37.78° C | 26% | 1011.4 hPa | - | - | - | - |
| 1787876070 | 38.33° C | 25% | 1011.5 hPa | - | - | - | - |
| 1787875769 | 37.78° C | 26% | 1011.5 hPa | - | - | - | - |
| 1787875468 | 37.22° C | 27% | 1011.6 hPa | - | - | - | - |
| 1787875167 | 37.22° C | 28% | 1011.6 hPa | - | - | - | - |
| 1787874866 | 37.78° C | 28% | 1011.4 hPa | - | - | - | - |
| 1787874565 | 37.78° C | 28% | 1011.5 hPa | - | - | - | - |
| 1787874264 | 37.78° C | 25% | 1011.5 hPa | - | - | - | - |
| 1787873963 | 37.78° C | 25% | 1011.5 hPa | - | - | - | - |
* Rain since midnight (hover to see other rain measurements)
** Current wind speed in m/s (hover to see current wind gust speed)